[[{"header":{"parameterUnit":"m.s-1","parameterCategory":1,"la1":30.2991,"la2":30.254,"lo1":-89.0895,"lo2":-89.0444,"dy":0.0017,"dx":0.0017,"nx":28,"ny":28,"refTime":"2025-05-24T21:00:00:Z","depth":0,"parameterNumber":2,"parameterNumberName":"U-component_of_WINDS"},"data":[0,0,0,0,0,0,0,0,0,0,0,0,0,0,0,0,0,0,0,0,0,0,0,0,0,0,0,0,0,0,0,0,0,0,0,0,0,0,0,0,0,0,0,0,0,0,0,0,0,0,0,0,0,0,0,0,0,0,0.3962,0.3962,0,0.4,0.4,0.4001,0.4003,0.4002,0.4002,0.4001,0.404,0.4041,0.4042,0,0,0,0,0,0,0,0,0,0,0,0,0,0.389,0.3892,0.3962,0.3962,0.3963,0.4,0.4,0.4001,0.4003,0.4002,0.4002,0.4001,0.4039,0.4041,0.4043,0,0,0,0,0,0,0,0,0,0,0,0,0,0.3924,0.3892,0.3962,0.3968,0.3969,0.4,0.4,0.4001,0.4003,0.4002,0.4001,0.4001,0.4039,0.4041,0.4043,0.4069,0,0,0.4049,0.405,0,0,0,0,0,0,0,0,0.3922,0.3927,0.3967,0.3968,0.3969,0.3996,0.3989,0.4024,0.4003,0.399,0.4001,0.4,0.4026,0.4029,0.4037,0.4071,0.4073,0.405,0.4051,0.4052,0.4052,0,0,0,0,0,0,0,0.392,0.3925,0.3977,0.3967,0.3969,0.3969,0.3973,0.3996,0.4011,0.3991,0.3991,0.3996,0.4026,0.4035,0.4038,0.4073,0.4049,0.4051,0.4053,0.4054,0.413,0.4131,0,0,0,0,0,0,0.3916,0.3923,0.3976,0.3978,0.3943,0.3971,0.3975,0.3988,0.4011,0.4014,0.3996,0.3996,0.4032,0.4036,0.404,0.4072,0.4052,0.4054,0.4055,0.4129,0.413,0.4131,0,0,0,0,0,0,0.3915,0.3921,0.3974,0.3951,0.3957,0.3973,0.3987,0.3989,0.3998,0.4015,0.4017,0.4003,0.4031,0.4036,0.4062,0.4073,0.4055,0.4057,0.4128,0.413,0.4131,0.4136,0,0,0,0,0,0,0.3913,0.392,0.3931,0.3951,0.3959,0.3996,0.3987,0.399,0.4002,0.4001,0.4022,0.4024,0.4031,0.4059,0.4064,0.4076,0.4058,0.4128,0.4129,0.413,0.4135,0.4137,0.4139,0,0,0,0,0,0.391,0.3931,0.3931,0.3938,0.3972,0.3997,0.4001,0.4009,0.4003,0.4013,0.4024,0.4024,0.4071,0.4061,0.4067,0.408,0.4127,0.4129,0.413,0.4134,0.4137,0.4139,0,0,0,0,0,0,0.3912,0.3934,0.3934,0.3962,0.3978,0.3997,0.401,0.4012,0.4029,0.4028,0.4036,0.4041,0.4066,0.4075,0.4064,0.4106,0.4098,0.4101,0.4099,0.4102,0.4104,0.4101,0.406,0,0,0,0,0,0.3915,0.3934,0.3952,0.3975,0.3982,0.3995,0.4006,0.4011,0.4027,0.4033,0.4046,0.4061,0.4079,0.4091,0.4109,0.4136,0.4141,0.4148,0.415,0.4152,0.4154,0.4169,0.4172,0.4137,0.4137,0.4136,0,0,0.3923,0.3937,0.3948,0.3975,0.3988,0.4006,0.4,0.402,0.4034,0.4036,0.4061,0.407,0.4088,0.4114,0.4127,0.4123,0.4165,0.4154,0.4155,0.4157,0.4171,0.4174,0.4177,0.4138,0.4137,0.4137,0,0,0.3946,0.3959,0.3979,0.3992,0.4011,0.4019,0.4024,0.4043,0.4049,0.4074,0.4076,0.4092,0.4124,0.4136,0.4146,0.4174,0.4174,0.418,0.419,0.4205,0.4207,0.421,0.4219,0.4223,0.4182,0.4182,0.4182,0,0.3953,0.3981,0.3989,0.4009,0.4021,0.4024,0.4044,0.4056,0.4079,0.4087,0.4083,0.4122,0.4134,0.4163,0.417,0.4178,0.4184,0.4177,0.4206,0.4209,0.4212,0.4221,0.4224,0.4182,0.4182,0.4182,0.4182,0,0.3989,0.4008,0.4022,0.4045,0.4058,0.4078,0.4089,0.4101,0.4105,0.4113,0.4138,0.4153,0.4173,0.4181,0.4184,0.421,0.4207,0.4205,0.4197,0.4215,0.4224,0.4227,0.4183,0.4183,0.4183,0.4183,0,0,0.4014,0.4041,0.4046,0.4056,0.4077,0.4092,0.4112,0.4132,0.4142,0.4158,0.4175,0.4201,0.4199,0.421,0.4215,0.4228,0.4248,0.4224,0.4224,0.4227,0.4277,0.4278,0.4282,0.4249,0.4249,0.425,0.4275,0,0.4039,0.4075,0.4082,0.4113,0.4131,0.4134,0.4151,0.4165,0.4174,0.419,0.4199,0.4217,0.4213,0.422,0.4233,0.4243,0.4258,0.4241,0.4264,0.4264,0.4259,0.4287,0.4289,0.4312,0.4279,0.4279,0.428,0,0.4073,0.409,0.4122,0.414,0.4148,0.4164,0.4182,0.4198,0.4214,0.4219,0.4232,0.4236,0.4256,0.4248,0.4275,0.4264,0.4273,0.428,0.4281,0.4283,0.4273,0.4289,0.4319,0.4323,0.4285,0.4285,0.4284,0,0.4087,0.4118,0.4142,0.415,0.4172,0.4183,0.4192,0.4208,0.4219,0.4236,0.4243,0.4262,0.4272,0.4286,0.4294,0.4287,0.4321,0.4314,0.4326,0.4326,0.4333,0.4332,0.4364,0.434,0.434,0.434,0.4339,0,0.4114,0.4134,0.4148,0.4162,0.4184,0.4193,0.4214,0.4224,0.4237,0.4253,0.4257,0.4272,0.4282,0.4298,0.4305,0.4326,0.4331,0.4336,0.4337,0.4335,0.4334,0.4341,0.434,0.434,0.434,0.434,0.434,0,0.4134,0.4145,0.417,0.4189,0.4194,0.4209,0.4225,0.4238,0.4247,0.4267,0.4272,0.4285,0.4304,0.4314,0.4338,0.4342,0.4366,0.4367,0.4361,0.4361,0.4373,0.4372,0.4411,0.4416,0.4388,0.4388,0.4389,0,0.415,0.4165,0.4186,0.4197,0.4206,0.4224,0.4236,0.4245,0.4257,0.4276,0.4287,0.4307,0.4322,0.4353,0.4364,0.4382,0.4383,0.4396,0.4386,0.4383,0.4383,0.4381,0.4383,0.4397,0.4397,0.4398,0.4398,0,0.4178,0.4182,0.4199,0.4218,0.4232,0.4247,0.4262,0.427,0.4282,0.4295,0.4314,0.4327,0.4351,0.437,0.4389,0.4398,0.44,0.4401,0.4404,0.4402,0.4398,0.44,0.4365,0.44,0.44,0.4399,0.4399,0.4399,0.4196,0.4209,0.4226,0.4244,0.4256,0.427,0.4284,0.4294,0.431,0.4331,0.4335,0.4356,0.4371,0.4397,0.4407,0.4423,0.442,0.4425,0.4427,0.4428,0.4428,0.4396,0.4426,0.4426,0.4426,0.4426,0.4426,0,0.4223,0.4234,0.4251,0.4271,0.4286,0.4287,0.4303,0.4315,0.4333,0.4347,0.4363,0.4385,0.4403,0.4416,0.4435,0.4445,0.4446,0.4449,0.4448,0.445,0.443,0.4424,0.4448,0.4448,0.4448,0.4448,0.4448,0.4448,0.4239,0.4262,0.4268,0.4296,0.4307,0.4327,0.4336,0.4348,0.436,0.4385,0.44,0.4408,0.4422,0.4441,0.4458,0.4461,0.4468,0.4471,0.4474,0.4454,0.4452,0.445,0.4445,0.4472,0.4472,0.4494,0.4494,0.4494]},{"header":{"parameterUnit":"m.s-1","parameterCategory":1,"la1":30.2991,"la2":30.254,"lo1":-89.0895,"lo2":-89.0444,"dy":0.0017,"dx":0.0017,"nx":28,"ny":28,"refTime":"2025-05-24T21:00:00:Z","depth":0,"parameterNumber":3,"parameterNumberName":"V-component_of_WINDS"},"data":[0,0,0,0,0,0,0,0,0,0,0,0,0,0,0,0,0,0,0,0,0,0,0,0,0,0,0,0,0,0,0,0,0,0,0,0,0,0,0,0,0,0,0,0,0,0,0,0,0,0,0,0,0,0,0,0,0,0,1.717,1.717,0,1.7172,1.7172,1.7172,1.7148,1.7147,1.7146,1.7146,1.7148,1.7148,1.7149,0,0,0,0,0,0,0,0,0,0,0,0,0,1.7145,1.7145,1.717,1.717,1.717,1.7172,1.7172,1.7172,1.7148,1.7147,1.7146,1.7145,1.7148,1.7148,1.7149,0,0,0,0,0,0,0,0,0,0,0,0,0,1.7152,1.7145,1.717,1.7158,1.7157,1.7172,1.7172,1.7172,1.7148,1.7147,1.7146,1.7145,1.7147,1.7148,1.7149,1.7175,0,0,1.7152,1.7153,0,0,0,0,0,0,0,0,1.7152,1.7153,1.716,1.7159,1.7158,1.7159,1.7164,1.7173,1.7148,1.7151,1.7146,1.7145,1.7152,1.7153,1.7155,1.7175,1.7176,1.7152,1.7153,1.7153,1.7154,0,0,0,0,0,0,0,1.7151,1.7153,1.7171,1.716,1.7159,1.7153,1.7153,1.7165,1.7157,1.7151,1.7149,1.715,1.7151,1.7154,1.7155,1.7176,1.7152,1.7153,1.7154,1.7154,1.7217,1.7219,0,0,0,0,0,0,1.7152,1.7153,1.7171,1.7171,1.7152,1.7154,1.7154,1.7159,1.7157,1.7156,1.7151,1.7149,1.7153,1.7154,1.7155,1.7186,1.7153,1.7154,1.7155,1.7216,1.7218,1.7219,0,0,0,0,0,0,1.7152,1.7154,1.7171,1.7161,1.7163,1.7155,1.7162,1.716,1.7163,1.7157,1.7155,1.7155,1.7152,1.7154,1.7171,1.7186,1.7155,1.7156,1.7215,1.7217,1.7218,1.7247,0,0,0,0,0,0,1.7151,1.7154,1.7164,1.7162,1.7163,1.7186,1.7163,1.7161,1.7165,1.7162,1.7161,1.716,1.7152,1.7169,1.7172,1.7186,1.7157,1.7214,1.7216,1.7218,1.7245,1.725,1.7254,0,0,0,0,0,1.715,1.7172,1.7165,1.7167,1.7176,1.7187,1.7188,1.7179,1.7166,1.7176,1.7172,1.716,1.7183,1.7171,1.7174,1.7189,1.7213,1.7215,1.7218,1.7243,1.7249,1.7254,0,0,0,0,0,0,1.7177,1.7172,1.7163,1.7185,1.7187,1.7183,1.7195,1.7185,1.719,1.7188,1.7176,1.7176,1.7194,1.7193,1.718,1.7214,1.7196,1.7199,1.7214,1.722,1.7224,1.7224,1.7157,0,0,0,0,0,1.7185,1.7195,1.719,1.7209,1.721,1.7203,1.7207,1.72,1.7201,1.7202,1.7199,1.7201,1.7209,1.7214,1.7221,1.7245,1.7244,1.7256,1.7261,1.7264,1.7267,1.728,1.7285,1.7227,1.7227,1.7227,0,0,1.7202,1.7201,1.7207,1.7214,1.7215,1.7225,1.7204,1.7215,1.7223,1.7203,1.7219,1.7218,1.7219,1.7239,1.7248,1.7239,1.7283,1.7267,1.727,1.7271,1.7283,1.7289,1.7294,1.7228,1.7228,1.7228,0,0,1.7239,1.7239,1.7255,1.7256,1.7257,1.7252,1.7256,1.7253,1.7251,1.7267,1.7253,1.7262,1.7275,1.7277,1.7279,1.7316,1.7305,1.7319,1.7342,1.7355,1.7359,1.7363,1.7377,1.7382,1.7322,1.7322,1.7322,0,1.726,1.7275,1.7265,1.7278,1.7281,1.7264,1.728,1.7282,1.7285,1.7288,1.7277,1.7294,1.7293,1.7314,1.7323,1.7326,1.733,1.7319,1.7359,1.7363,1.7367,1.738,1.7385,1.7323,1.7323,1.7323,1.7323,0,1.7302,1.7312,1.7325,1.7329,1.7334,1.7349,1.734,1.7346,1.7338,1.7334,1.735,1.7349,1.7355,1.736,1.7352,1.7379,1.7374,1.7361,1.7343,1.7374,1.7386,1.7391,1.7326,1.7325,1.7325,1.7324,0,0,1.7356,1.7353,1.7358,1.736,1.7359,1.7367,1.7381,1.7387,1.7393,1.7396,1.7407,1.7419,1.7408,1.741,1.7403,1.7414,1.7444,1.74,1.74,1.7409,1.7474,1.7484,1.749,1.7436,1.7437,1.7437,1.7474,0,1.7392,1.7415,1.7406,1.7431,1.744,1.7424,1.7436,1.7437,1.7433,1.7441,1.7437,1.7446,1.743,1.7432,1.7442,1.7438,1.7457,1.7435,1.7447,1.7447,1.7448,1.7496,1.7506,1.7541,1.7479,1.7479,1.748,0,1.7437,1.7442,1.7468,1.7466,1.7469,1.748,1.7485,1.7493,1.7494,1.749,1.7494,1.7483,1.7497,1.7478,1.7496,1.7482,1.7486,1.7484,1.7485,1.7487,1.7466,1.7499,1.7551,1.7557,1.7487,1.7487,1.7486,0,1.7475,1.7487,1.7504,1.7506,1.7504,1.7512,1.7512,1.7511,1.7516,1.752,1.7523,1.7529,1.7532,1.7537,1.7528,1.7515,1.7548,1.7528,1.7546,1.7546,1.7554,1.7553,1.7608,1.7555,1.7555,1.7555,1.7555,0,1.7517,1.7533,1.7521,1.7532,1.7549,1.7538,1.7556,1.7554,1.7554,1.7563,1.7549,1.7559,1.7547,1.7555,1.7548,1.7565,1.7566,1.7564,1.7562,1.7566,1.7566,1.7569,1.7566,1.7557,1.7556,1.7556,1.7556,0,1.7562,1.7554,1.7572,1.7568,1.7568,1.7581,1.7578,1.7588,1.7583,1.7595,1.7598,1.759,1.7599,1.7591,1.76,1.7595,1.7617,1.7611,1.7617,1.7616,1.7634,1.7632,1.7693,1.77,1.7642,1.7643,1.7643,0,1.7589,1.7601,1.7599,1.7605,1.7605,1.7614,1.7619,1.7608,1.7613,1.7615,1.7625,1.7632,1.7638,1.7653,1.7648,1.7655,1.765,1.767,1.765,1.7654,1.7651,1.765,1.7651,1.7674,1.7675,1.7676,1.7676,0,1.7639,1.7635,1.7642,1.7648,1.7653,1.7657,1.766,1.7665,1.7654,1.7661,1.767,1.7674,1.7683,1.7691,1.7696,1.7695,1.7684,1.7682,1.7687,1.7691,1.7694,1.7693,1.7629,1.7681,1.7681,1.768,1.768,1.768,1.7676,1.7687,1.7687,1.7695,1.7696,1.7699,1.7708,1.7704,1.7712,1.7718,1.7711,1.7722,1.7722,1.7728,1.7729,1.7737,1.7729,1.7735,1.7737,1.7739,1.7741,1.7692,1.7738,1.7738,1.7738,1.7738,1.7737,0,1.7726,1.7725,1.7733,1.7737,1.7744,1.7733,1.7735,1.7741,1.7751,1.7753,1.7758,1.7769,1.7777,1.7772,1.7779,1.7787,1.7782,1.7789,1.7788,1.7788,1.7749,1.7744,1.7793,1.7793,1.7793,1.7793,1.7793,1.7793,1.7753,1.7769,1.7765,1.7782,1.7781,1.7792,1.7794,1.7797,1.7798,1.781,1.7817,1.7814,1.7813,1.7819,1.7826,1.7824,1.7828,1.7837,1.7834,1.7797,1.7791,1.7786,1.7782,1.7838,1.7838,1.7873,1.7873,1.7874]}]]